Change the Weather History Date:

Tuesday, February 21, 2012

  Actual Average Record
Temperature  
Mean Temperature 40 °F -  
Max Temperature 47 °F 37 °F 57 °F (1997)
Min Temperature 32 °F 31 °F 5 °F (2008)
Degree Days  
Heating Degree Days 26    
Moisture  
Dew Point 33 °F    
Average Humidity 83    
Maximum Humidity 100    
Minimum Humidity 50    
Precipitation  
Precipitation 0.09 in - - ()
Sea Level Pressure  
Sea Level Pressure 29.75 in    
Wind  
Wind Speed 14 mph (SSW)    
Max Wind Speed 21 mph    
Max Gust Speed -    
Visibility 9 miles    
Events Snow    
Averages and records for this station are not official NWS values.
T = Trace of Precipitation, MM = Missing Value Source: NWS Daily Summary

Daily Weather History Graph

Daily Weather History Graph

Search for Another Location

Airport or City:

Trip Planner

Search our weather history database for the weather conditions in past years. The results will help you decide how hot, cold, wet, or windy it might be!

Date:

Astronomy

Feb. 21, 2012 Rise Set
Actual Time 6:41 AM CST 5:37 PM CST
Civil Twilight 6:14 AM CST 6:05 PM CST
Nautical Twilight 5:42 AM CST 6:36 PM CST
Astronomical Twilight 5:10 AM CST 7:08 PM CST
Moon 6:10 AM CST (2/21) 5:44 PM CST (2/21)
Length of Visible Light 11h 50m
Length of Day
10h 55m
Waning Crescent, 0% of the Moon is Illuminated
Feb 21
Waning Crescent
Feb 21
New
Feb 29
First Quarter
Mar 8
Full
Mar 14
Last Quarter

Hourly Weather History & Observations

Time (CST) Temp. Windchill Dew Point Humidity Pressure Visibility Wind Dir Wind Speed Gust Speed Precip Events Conditions
12:56 AM 36.0 °F 26.0 °F 27.1 °F 70% 29.84 in 10.0 mi SSE 17.3 mph - N/A   Scattered Clouds
1:31 AM 35.6 °F 28.0 °F 28.4 °F 75% 29.78 in 10.0 mi South 10.4 mph - 0.00 in   Overcast
1:56 AM 36.9 °F 26.5 °F 31.1 °F 80% 29.78 in 10.0 mi South 19.6 mph - 0.00 in   Overcast
2:56 AM 34.9 °F 23.6 °F 34.9 °F 100% 29.73 in 6.0 mi South 20.7 mph - 0.03 in Snow Light Snow
3:12 AM 33.8 °F 24.3 °F 33.8 °F 100% 29.69 in 3.0 mi South 13.8 mph - 0.03 in Snow Light Snow
3:41 AM 33.8 °F 25.8 °F 33.8 °F 100% 29.67 in 4.0 mi South 10.4 mph - 0.06 in Snow Light Snow
3:56 AM 32.9 °F 25.9 °F 32.9 °F 100% 29.70 in 6.0 mi SSE 8.1 mph - 0.06 in Snow Light Snow
4:56 AM 34.0 °F 28.8 °F 34.0 °F 100% 29.70 in 10.0 mi SSE 5.8 mph - 0.00 in   Overcast
5:16 AM 33.8 °F 26.4 °F 33.8 °F 100% 29.65 in 10.0 mi SSE 9.2 mph - N/A   Overcast
5:34 AM 35.6 °F 28.6 °F 35.6 °F 100% 29.65 in 10.0 mi South 9.2 mph - N/A   Overcast
5:56 AM 34.9 °F 26.6 °F 34.9 °F 100% 29.69 in 10.0 mi South 11.5 mph - N/A   Overcast
6:22 AM 35.6 °F 27.5 °F 35.6 °F 100% 29.65 in 10.0 mi South 11.5 mph - N/A   Overcast
6:56 AM 36.9 °F 28.2 °F 36.9 °F 100% 29.71 in 10.0 mi SW 13.8 mph - N/A   Overcast
8:56 AM 38.8 °F 30.0 °F 38.8 °F 100% 29.75 in 10.0 mi WSW 16.1 mph - N/A   Overcast
9:56 AM 39.9 °F 32.1 °F 39.9 °F 100% 29.75 in 10.0 mi WSW 13.8 mph - N/A   Overcast
10:43 AM 41.0 °F 32.2 °F 41.0 °F 100% 29.73 in 5.0 mi WSW 18.4 mph - N/A   Overcast
10:56 AM 41.0 °F 31.9 °F 41.0 °F 100% 29.77 in 6.0 mi WSW 19.6 mph - N/A   Overcast
12:56 PM 41.9 °F 32.8 °F 41.0 °F 97% 29.77 in 10.0 mi WSW 20.7 mph - 0.00 in   Overcast
1:56 PM 45.9 °F 39.1 °F 37.9 °F 74% 29.76 in 10.0 mi West 16.1 mph - N/A   Scattered Clouds
2:56 PM 46.9 °F - 32.0 °F 56% 29.78 in 10.0 mi WSW 16.1 mph - N/A   Partly Cloudy
3:56 PM 47.8 °F - 32.0 °F 54% 29.78 in 10.0 mi WSW 16.1 mph - N/A   Partly Cloudy
4:56 PM 46.9 °F - 29.1 °F 50% 29.79 in 10.0 mi WSW 15.0 mph - N/A   Clear
5:56 PM 45.0 °F 38.2 °F 30.0 °F 56% 29.81 in 10.0 mi WSW 15.0 mph - N/A   Clear
6:56 PM 43.9 °F 37.2 °F 28.0 °F 54% 29.81 in 10.0 mi WSW 13.8 mph - N/A   Clear
7:56 PM 39.9 °F 33.4 °F 29.1 °F 65% 29.82 in 10.0 mi SW 10.4 mph - N/A   Scattered Clouds
8:56 PM 37.9 °F 30.5 °F 29.1 °F 71% 29.82 in 10.0 mi SW 11.5 mph - N/A   Clear
9:56 PM 36.9 °F 28.7 °F 27.1 °F 68% 29.81 in 10.0 mi SW 12.7 mph - N/A   Clear
10:56 PM 34.9 °F 27.1 °F 27.1 °F 73% 29.79 in 10.0 mi SW 10.4 mph - N/A   Clear
11:56 PM 34.9 °F 29.0 °F 27.1 °F 73% 29.78 in 10.0 mi SW 6.9 mph - N/A   Partly Cloudy